Location: Guilderland
(42.7045°N, 73.9115°W)
Time: 02:26:51
(UTC+00:00)

BREEZE-M DEB (TANK) - Pass Details

Date: 24 January 2020
Orbit: 323 x 14857 km, 49.5° (Epoch: 17 February)

Event Time Altitude Azimuth Distance (km) Brightness Sun altitude
Rises 23:02:54 0° 247° (WSW) 2,437 8.3 -12.0°
Reaches altitude 10° 23:05:04 10° 251° (WSW) 1,304 6.5 -12.4°
Maximum altitude 23:07:23 63° 334° (NNW) 369 2.2 -12.8°
Enters shadow 23:08:38 24° 50° (NE) 775 3.3 -13.0°
